Back to catalog

STARLINK-38015

AliveCommunicationsSSO
NORAD 69726·PAYLOAD·🇺🇸 United States

Launched Jun 28, 2026 from Vandenberg Space Force Base

Loading…

Next Passes (next 24 hours)

TLE

FreshSource: CelesTrak SupGP

Epoch: Sep 14, 2026, 15:16 UTC

1 69726C 26147Y   26257.63659722 -.00002878  00000+0 -19326-4 0  2570
2 69726  97.2840 297.1031 0001542  86.6490 260.1824 15.75198397    19

Track STARLINK-38015 in real time with AllMySat

Download on the App Store